Regional Weather Roundup
Issued by NWS

Home | Current Version | Previous Version | Text Only | Print | Product List | Glossary On
Versions: 1 2 3 4 5 6 7 8 9 10 11 12 13 14 15 16 17 18 19 20 21 22 23 24 25 26 27 28 29 30 31 32 33 34 35 36 37 38 39 40 41 42 43 44 45 46 47 48 49 50
000
ASUS43 KLMK 220302
RWRKY
KENTUCKY REGIONAL WEATHER ROUNDUP
NATIONAL WEATHER SERVICE LOUISVILLE KY
1100 PM EDT MON AUG 21 2017

NOTE "FAIR" INDICATES FEW OR NO CLOUDS BELOW 12,000 FEET
WITH NO SIGNIFICANT WEATHER AND/OR OBSTRUCTIONS TO VISIBILITY.

KYZ001>023-026-027-061>063-070>075-220400-
WESTERN AND SOUTH CENTRAL KENTUCKY

CITY           SKY/WX    TMP DP  RH WIND       PRES   REMARKS
PADUCAH        PTCLDY    83  71  67 S5        30.07R
HENDERSON      NOT AVBL
OWENSBORO      LGT RAIN  76  73  91 N3        30.09F
HOPKINSVILLE   CLEAR     83  73  73 S5        30.11R
BOWLING GREEN  CLOUDY    82  71  69 S7        30.12R
GLASGOW        CLEAR     73  68  83 CALM      30.13S
$$

KYZ024-025-028>034-038-045-046-053-220400-
NORTH CENTRAL KENTUCKY

CITY           SKY/WX    TMP DP  RH WIND       PRES   REMARKS
LOUISVILLE/SDF CLOUDY    85  69  58 S7        30.08S
LOUISVILLE/LOU MOCLDY    82  73  74 S6        30.09S
FORT KNOX      CLOUDY    76  70  82 S5        30.10R
$$

KYZ035>037-039>044-047>052-055>060-089>105-220400-
NORTHEAST KENTUCKY

CITY           SKY/WX    TMP DP  RH WIND       PRES   REMARKS
LEXINGTON      CLOUDY    77  67  71 S6        30.13S
COVINGTON      CLOUDY    78  71  79 S7        30.09S
FRANKFORT      PTCLDY    79  68  69 S6        30.11R
$$

KYZ054-064>069-076>088-106>120-220400-
SOUTHEAST KENTUCKY

CITY           SKY/WX    TMP DP  RH WIND       PRES   REMARKS
JACKSON        PTCLDY    76  70  82 CALM      30.17S
LONDON         CLOUDY    74  71  91 CALM      30.17S
SOMERSET       NOT AVBL
MIDDLESBORO    CLEAR     71  68  89 CALM      30.20S
MONTICELLO     CLEAR     71  70  96 W13       30.18S
$$




USA.gov is the U.S. government's official web portal to all federal, state and local government web resources and services.